Powrót do katalogu

STARLINK-37251

AktywnyŁącznośćVLEO
NORAD 68514·PAYLOAD·🇺🇸 United States

Wystrzelony Mar 30, 2026 z Cape Canaveral Space Force Station

Loading…

Następne Przeloty (najbliższe 24 godziny)

TLE

ŚwieżeSource: CelesTrak SupGP

Epoka: Sep 15, 2026, 03:04 UTC

1 68514C 26068G   26258.12826389  .00052310  00000+0  15457-2 0  2580
2 68514  53.1584 325.0741 0001249  96.8270 106.0658 15.34360865    10

Śledź STARLINK-37251 w czasie rzeczywistym z AllMySat

Download on the App Store